Weather Roundup
Issued by NWS Corpus Christi, TX

Home | Current Version | Previous Version | Text Only | Print | Product List | Glossary On
Versions: 1 2 3 4 5 6 7 8 9 10 11 12 13 14 15 16 17 18 19 20 21 22 23 24 25 26 27 28 29 30 31 32 33 34 35 36 37 38 39 40 41 42 43 44 45 46 47 48 49 50
000
ASUS44 KCRP 010610
HRRCRP

SOUTH TEXAS REGIONAL WEATHER ROUNDUP
NATIONAL WEATHER SERVICE CORPUS CHRISTI TX
100 AM CDT FRI AUG 01 2014


TXZ229>244-010700-
...CORPUS CHRISTI AREA OBSERVATIONS...

CITY           SKY/WX    TMP DP  RH WIND       PRES   REMARKS
CORPUS CHRISTI MOCLDY    81  76  84 S13       29.93S
NAS CORPUS CHR CLEAR     82  78  88 S16G22    29.92S HX  91
ROCKPORT       PTCLDY    82  77  84 S8        29.92S HX  90
KINGSVILLE NAS CLEAR     81  77  88 S10       29.93R
ALICE          CLEAR     81  74  79 S12       29.92S
FALFURRIAS     CLEAR     74  74  99 S8        29.92F
$$

...VICTORIA AREA OBSERVATIONS...

CITY           SKY/WX    TMP DP  RH WIND       PRES   REMARKS
VICTORIA       CLOUDY    83  77  82 S6        29.95S HX  92
BEEVILLE       FAIR      81  75  82 S13       29.93S
PLEASANTON     CLOUDY    83  69  62 E6        29.96R
SAN ANTONIO    MOCLDY    84  70  62 NE8       29.99S
$$

...LAREDO AREA OBSERVATIONS...

CITY           SKY/WX    TMP DP  RH WIND       PRES   REMARKS
LAREDO         CLEAR     88  69  53 SE18      29.94S HX  92
COTULLA        CLEAR     86  72  62 SE10      29.92S HX  92
DEL RIO        PTCLDY    83  69  62 NE10      29.94S
MCALLEN        PTCLDY    83  76  79 SE14      29.94S HX  91
HEBBRONVILLE   CLEAR     82  71  69 SE10      29.95S
$$

...OTHER TEXAS OBSERVATIONS...

CITY           SKY/WX    TMP DP  RH WIND       PRES   REMARKS
BROWNSVILLE    CLEAR     80  76  87 SE9       29.95S
HOUSTON        LGT RAIN  73  73 100 S8        29.98F FOG
COL. STATION   CLOUDY    75  69  81 N6        29.98F
AUSTIN         CLOUDY    79  64  60 N15       30.00F
WACO           CLOUDY    73  64  73 N13       30.01F
FORT WORTH     CLOUDY    71  65  81 N12       30.03F
WICHITA FALLS  MOCLDY    69  67  93 E3        30.09R
LUBBOCK        MOCLDY    67  54  63 E7        30.19S
EL PASO        LGT RAIN  77  58  51 SE13G22   30.15R
$$

...MARINE OBSERVATIONS...

STATION/POSITION TIME  SKY/WX   TEMP    WIND        PRES    VSBY  WAVE   SWELL
                                AIR SEA DIR/SP/G                  HT/PER HT/PER
                 (UTC)          (F)     (DEG/KT/KT) (MB)    (MI)  (FT/S) (FT/S)
PORT ARANSAS     0600            81 83  170/ 13/ 15 1013.7F
BUOY 90 E PORT A 0600            84 84  170/ 14/ 16 1013.9F         2/ 3
BUOY 45 SE BAFFI 0600            84 84  160/ 17/ 19 1013.0F         3/ 6
BUOY 200 E PT IS 0600            85 86  140/  8/  8 1015.2F         1/ 5
BUOY 15 E GALVES NOT AVBL
$$



USA.gov is the U.S. government's official web portal to all federal, state and local government web resources and services.